Indianapolis, IN

7:05 PM EDT on July 16, 2019 (GMT -0400)
Indianapolis International

Weather History for KIND - May, 2019

Change the Weather History Date:

Thursday, May 9, 2019

  Actual Average Record
Temperature  
Mean Temperature 65 °F 60 °F  
Max Temperature 74 °F 71 °F 93 °F (1895)
Min Temperature 56 °F 50 °F 29 °F (1947)
Degree Days  
Heating Degree Days 0 6  
Month to date heating degree days 29 60  
Since 1 July heating degree days 5280 5282  
Cooling Degree Days 0 1  
Month to date cooling degree days 3 9  
Year to date cooling degree days 4 24  
Growing Degree Days 16 (Base 50)    
Moisture  
Dew Point 62 °F    
Average Humidity 74    
Maximum Humidity 84    
Minimum Humidity 64    
Precipitation  
Precipitation 0.30 in 0.16 in 1.08 in (2013)
Month to date precipitation 1.07 1.43  
Year to date precipitation 18.55 13.78  
Snow  
Snow 0.00 in 0.00 in 0.90 in (1923)
Month to date snowfall 0.0 0.0  
Since 1 July snowfall 19.4 25.9  
Snow Depth 0.00 in    
Sea Level Pressure  
Sea Level Pressure 29.80 in    
Wind  
Wind Speed 15 mph (SW)    
Max Wind Speed 24 mph    
Max Gust Speed 34 mph    
Visibility 9 miles    
Events Rain    
T = Trace of Precipitation, MM = Missing Value Source: NWS Daily Summary

Daily Weather History Graph

Daily Weather History Graph

Search for Another Location

Airport or City:

Astronomy

May. 09, 2019 Rise Set
Actual Time 6:36 AM EDT 8:47 PM EDT
Civil Twilight 6:06 AM EDT 9:17 PM EDT
Nautical Twilight 5:30 AM EDT 9:53 PM EDT
Astronomical Twilight 4:50 AM EDT 10:34 PM EDT
Moon 10:31 AM EDT (5/9) 12:45 AM EDT (5/9)
Length of Visible Light 15h 10m
Length of Day
14h 10m
Waxing Crescent, 24% of the Moon is Illuminated
May 9
Waxing Crescent
May 11
First Quarter
May 18
Full
May 26
Last Quarter
Jun 3
New

Hourly Weather History & Observations

Time (EDT) Temp. Dew Point Humidity Pressure Visibility Wind Dir Wind Speed Gust Speed Precip Events Conditions
12:54 AM 72.0 °F 61.0 °F 68% 29.80 in 10.0 mi SE 11.5 mph - N/A   Mostly Cloudy
1:54 AM 72.0 °F 61.0 °F 68% 29.78 in 10.0 mi SSE 16.1 mph - N/A   Mostly Cloudy
2:54 AM 72.0 °F 61.0 °F 68% 29.77 in 10.0 mi SSE 12.7 mph - N/A   Mostly Cloudy
3:54 AM 73.0 °F 61.0 °F 66% 29.75 in 10.0 mi SSE 13.8 mph 23.0 mph N/A   Mostly Cloudy
4:54 AM 73.0 °F 61.0 °F 66% 29.73 in 10.0 mi South 16.1 mph - N/A   Mostly Cloudy
5:54 AM 72.0 °F 62.1 °F 71% 29.73 in 10.0 mi South 16.1 mph - 0.00 in Rain Light Rain
6:54 AM 69.1 °F 64.0 °F 84% 29.72 in 10.0 mi South 12.7 mph - 0.05 in Rain Light Rain
7:54 AM 69.1 °F 64.0 °F 84% 29.73 in 9.0 mi South 17.3 mph - 0.00 in Rain Light Rain
8:54 AM 69.1 °F 64.9 °F 87% 29.75 in 7.0 mi South 13.8 mph - 0.01 in Rain Light Rain
9:33 AM 70.0 °F 64.9 °F 84% 29.77 in 10.0 mi SSW 17.3 mph 23.0 mph 0.00 in   Overcast
9:54 AM 70.0 °F 64.9 °F 84% 29.76 in 10.0 mi SW 18.4 mph 28.8 mph 0.00 in   Overcast
10:46 AM 71.1 °F 64.0 °F 78% 29.78 in 10.0 mi SW 20.7 mph 29.9 mph N/A   Overcast
10:54 AM 71.1 °F 64.0 °F 78% 29.77 in 10.0 mi SW 18.4 mph 33.4 mph N/A   Overcast
11:37 AM 72.0 °F 63.0 °F 73% 29.80 in 10.0 mi SW 21.9 mph 33.4 mph N/A   Overcast
11:54 AM 72.0 °F 63.0 °F 73% 29.79 in 10.0 mi SSW 23.0 mph 29.9 mph N/A   Overcast
12:41 PM 72.0 °F 63.0 °F 73% 29.81 in 10.0 mi SW 18.4 mph - N/A   Overcast
12:54 PM 72.0 °F 64.0 °F 76% 29.81 in 10.0 mi SSW 17.3 mph 24.2 mph N/A   Overcast
1:32 PM 70.0 °F 64.9 °F 84% 29.82 in 10.0 mi South 17.3 mph - N/A   Overcast
1:54 PM 70.0 °F 64.9 °F 84% 29.81 in 10.0 mi SSW 24.2 mph 32.2 mph N/A   Overcast
2:54 PM 71.1 °F 64.0 °F 78% 29.81 in 10.0 mi SSW 19.6 mph 28.8 mph 0.00 in   Overcast
3:33 PM 70.0 °F 63.0 °F 78% 29.83 in 10.0 mi SSW 16.1 mph - 0.00 in Rain Light Rain
3:54 PM 70.0 °F 64.0 °F 81% 29.81 in 10.0 mi SW 11.5 mph - 0.01 in   Overcast
4:51 PM 71.6 °F 62.6 °F 73% 29.82 in 10.0 mi SSW 17.3 mph - N/A   Overcast
4:54 PM 72.0 °F 63.0 °F 73% 29.81 in 10.0 mi SSW 17.3 mph - N/A   Overcast
5:54 PM 72.0 °F 62.1 °F 71% 29.81 in 10.0 mi South 16.1 mph - N/A   Mostly Cloudy
6:54 PM 71.1 °F 61.0 °F 70% 29.81 in 10.0 mi SSW 15.0 mph - N/A   Mostly Cloudy
7:54 PM 70.0 °F 61.0 °F 73% 29.80 in 10.0 mi South 12.7 mph - N/A   Overcast
8:45 PM 66.0 °F 63.0 °F 90% 29.83 in 5.0 mi WSW 10.4 mph - 0.03 in Rain Light Rain
8:54 PM 66.0 °F 63.0 °F 90% 29.82 in 6.0 mi West 11.5 mph 17.3 mph 0.07 in Rain Light Rain
9:04 PM 64.9 °F 63.0 °F 93% 29.83 in 2.0 mi NW 18.4 mph 25.3 mph 0.02 in Rain Heavy Rain
9:26 PM 62.1 °F 61.0 °F 96% 29.85 in 2.0 mi NW 15.0 mph - 0.11 in Rain Rain
9:47 PM 61.0 °F 59.0 °F 93% 29.86 in 10.0 mi WNW 12.7 mph - 0.14 in   Overcast
9:54 PM 61.0 °F 59.0 °F 93% 29.87 in 10.0 mi WNW 11.5 mph - 0.14 in   Overcast
10:18 PM 61.0 °F 59.0 °F 93% 29.89 in 10.0 mi WNW 6.9 mph - 0.00 in Rain Light Rain
10:54 PM 59.0 °F 57.0 °F 93% 29.91 in 9.0 mi WNW 12.7 mph - 0.01 in Rain Light Rain
11:54 PM 57.9 °F 55.9 °F 93% 29.91 in 10.0 mi WNW 6.9 mph - 0.01 in   Overcast